Starlink 6368

operational
NORAD ID: 57234 Int'l Des: 2023-094 Owner: SPXS Country: US Constellation: starlink
LEOCIRCULAR

Über Starlink 6368

Beschreibung wird geladen...

Live-Position

3D-Globus wird geladen...

Nächste Überflüge

Höhenverlauf

Altitude vs Time

uPlot chart will show altitude changes over time

Zweizeiliger Elementsatz

1 57234U 23094S 25353.64355266 .00001143 00000-0 99688-4 0 9997
2 57234 43.0031 104.8677 0001457 272.6781 87.3895 15.02536951135081
Epoch: 19. Dez. 2025 • Age: 13 hours

Aktueller Status

Höhe 560.6 km
Geschwindigkeit 7.59 km/s
Subsatellitenpunkt 30.82°N, 81.43°E
Startdatum 7. Juli 2023
Alter 2.4 years
Typ internet

Technische Details

Klassifizierung Payload
Masse 305.00 kg
Trockenmasse 290.00 kg
Gesamtmasse 305.00 kg
Länge 0.20 m
Durchmesser 2.80 m
Spannweite 9.00 m
Form Box + pan
Hersteller SPXS
Bus-Typ Starlink
Phasenstatus In Orbit
Besitzer/Staat SPXS/US

Große Konstellationen

Loading constellations...